Weather Roundup
Issued by NWS

Home | Current Version | Previous Version | Graphics & Text | Print | Product List | Glossary Off
Versions: 1 2 3 4 5 6 7 8 9 10 11 12 13 14 15 16 17 18 19 20 21 22 23 24 25 26 27 28 29 30 31 32 33 34 35 36 37 38 39 40 41 42 43 44 45 46 47 48 49 50

000
NZUS93 KARX 201310
HRRWXR

CURRENT HOURLY OBSERVATIONS ACROSS
MUCH OF THE UPPER MISSISSIPPI VALLEY
NATIONAL WEATHER SERVICE LA CROSSE WI
800 AM CDT SAT SEP 20 2014


...SOUTHEAST MINNESOTA...


CITY           SKY/WX    TMP DP  RH WIND       PRES   REMARKS
ROCHESTER      LGT RAIN  64  62  93 W12       29.82R
ROCHESTER/MAYO CLOUDY    64  62  93 SW12G28   29.77S
WINONA         SUNNY     70  63  78 W5        29.75F
AUSTIN         PTSUNNY   64  61  88 SW10      29.83R
ALBERT LEA     CLOUDY    64  63  94 SW9G17    29.81S
DODGE CENTER   PTSUNNY   64  63  94 SW13      29.80R
PRESTON        CLOUDY    63  63 100 SW10      29.81R
OWATONNA       PTSUNNY   64  63  94 SW8       29.80R
FARIBAULT      PTSUNNY   68  61  77 W8        29.79S
$$

...ELSEWHERE IN MINNESOTA...


CITY           SKY/WX    TMP DP  RH WIND       PRES   REMARKS
MINNEAPOLIS    MOSUNNY   64  58  80 NW12      29.77R
INTNL FALLS    CLOUDY    52  51  97 W9        29.69R FOG
DULUTH         CLOUDY    62  55  77 NW16G26   29.68R
RED WING       MOSUNNY   68  63  83 W10       29.73S
REDWOOD FALLS  PTCLDY    60  56  86 NW10      29.83R
MANKATO        PTCLDY    64  55  72 W9        29.81R
WORTHINGTON    CLOUDY    61  57  88 SW7       29.89R
FAIRMONT       CLOUDY    64  57  77 NW9       29.84R
$$

...SOUTHWEST WISCONSIN...


CITY           SKY/WX    TMP DP  RH WIND       PRES   REMARKS
LA CROSSE      MOSUNNY   68  62  81 VRB6      29.74F
PRAIRIE DU CHI CLOUDY    66  61  82 CALM      29.79S
BOSCOBEL       CLOUDY    66  62  87 S3        29.79R
LONE ROCK      CLOUDY    69  62  78 CALM      29.79S
PLATTEVILLE    CLOUDY    65  63  94 SW7       29.84R
FORT MC COY    MOSUNNY   64  62  93 SW3       29.75F
CAMP DOUGLAS   MOSUNNY   64  64 100 W8        29.76R
VIROQUA        FAIR      64  64 100 SW8G16    29.78S
WIS DELLS      CLOUDY    64  61  91 SW9       29.78S
$$

...ELSEWHERE IN WISCONSIN...


CITY           SKY/WX    TMP DP  RH WIND       PRES   REMARKS
MILWAUKEE      CLOUDY    65  58  78 SW20G30   29.78F
MADISON        CLOUDY    66  62  87 VRB5      29.82S
GREEN BAY      LGT RAIN  64  62  93 SW13      29.71F
EAU CLAIRE     CLOUDY    67  63  87 SW9       29.72R
BLACK RVR FLS  FAIR      65  65  98 SW3       29.73S
MEDFORD        CLOUDY    63  61  95 SW10G17   29.71S
WAUSAU         PTSUNNY   64  61  90 SW12      29.70S
WIS RAPIDS     PTSUNNY   63  61  93 S7        29.74F
MARSHFIELD     MOSUNNY   64  62  93 SW10      29.72F
RICE LAKE      CLOUDY    66  61  85 W10G21    29.73R
$$

...NORTHEAST IOWA...


CITY           SKY/WX    TMP DP  RH WIND       PRES   REMARKS
WATERLOO       CLOUDY    67  62  84 SW13      29.83R
DUBUQUE        CLOUDY    64  63  96 SW12      29.84R FOG
DECORAH        PTSUNNY   64  63  94 VRB7      29.80R
MASON CITY     LGT RAIN  65  63  93 W14       29.86R
CHARLES CITY   CLOUDY    64  63  94 SW10G17   29.83R
OELWEIN        CLOUDY    64  63  94 SW8       29.84R
$$

...ELSEWHERE IN IOWA...


CITY           SKY/WX    TMP DP  RH WIND       PRES   REMARKS
DES MOINES     LGT RAIN  68  64  87 S9        29.86F
IOWA CITY      CLOUDY    66  64  93 S14       29.85F
FORT DODGE     CLOUDY    64  63  94 SW7       29.88S
MARSHALLTOWN   CLOUDY    67  63  87 SW8       29.85F
CEDAR RAPIDS   CLOUDY    66  65  96 W8        29.86S FOG
$$

...NORTHERN ILLINOIS...


CITY           SKY/WX    TMP DP  RH WIND       PRES   REMARKS
CHICAGO-OHARE  CLOUDY    65  55  70 SW13G18   29.89F
DUPAGE         PTSUNNY   60  55  83 S10       29.91F
CHICAGO-MIDWAY CLOUDY    64  56  75 SW16      29.92F
MOLINE         CLOUDY    64  61  90 SW10      29.89F FOG
ROCKFORD       CLOUDY    63  58  83 S14       29.88F
STERLING       CLOUDY    63  57  82 S3        29.89F
PEORIA         PTSUNNY   63  58  83 S8        29.97F HAZE
$$

NOTE: "FAIR" INDICATES FEW OR NO CLOUDS BELOW 12,000 FEET WITH NO
SIGNIFICANT WEATHER AND/OR OBSTRUCTIONS TO VISIBILITY. WIND
SPEEDS ARE IN MILES-PER-HOUR.



USA.gov is the U.S. government's official web portal to all federal, state and local government web resources and services.